Regional Weather Roundup
Issued by NWS

Home | Current Version | Previous Version | Text Only | Print | Product List | Glossary On
Versions: 1 2 3 4 5 6 7 8 9 10 11 12 13 14 15 16 17 18 19 20 21 22 23 24 25 26 27 28 29 30 31 32 33 34 35 36 37 38 39 40 41 42 43 44 45 46 47 48 49 50
000
ASUS43 KMPX 201601
RWRMN
WEATHER ROUNDUP FOR MINNESOTA
NATIONAL WEATHER SERVICE TWIN CITIES/CHANHASSEN MN
1000 AM CST MON NOV 20 2017


NOTE: "FAIR" INDICATES FEW OR NO CLOUDS BELOW 12,000 FEET WITH NO
SIGNIFICANT WEATHER AND/OR OBSTRUCTIONS TO VISIBILITY. N/A MEANS
CURRENT SKY AND/OR WEATHER CONDITIONS ARE NOT AVAILABLE.

MNZ060>063-068>070-201700-
   Twin Cities Metro

CITY           SKY/WX    TMP DP  RH WIND       PRES   REMARKS
TWIN CITIES    CLOUDY    37  29  72 S8        29.58F
ST PAUL        CLOUDY    35  29  78 S9        29.60F WCI  28
CRYSTAL        CLOUDY    37  26  64 S12       29.56F
BLAINE         PTSUNNY   39  30  70 S12       29.56F
LAKEVILLE      CLOUDY    37  28  70 S12       29.57F
EDEN PRAIRIE   CLOUDY    38  28  67 S7        29.57F
SOUTH ST PAUL  CLOUDY    36  28  74 S5        29.59F
LAKE ELMO      FAIR      36  30  80 S12       29.59F
$$
MNZ001>005-007-008-013>017-022>024-027-028-201700-
   Northwest Minnesota

CITY           SKY/WX    TMP DP  RH WIND       PRES   REMARKS
BEMIDJI        CLOUDY    31  27  83 SE5       29.40F WCI  26
HALLOCK        CLOUDY    30  27  86 S18       29.29F WCI  18
ROSEAU         CLOUDY    36  28  75 S13       29.31F
WARROAD        CLOUDY    36  27  69 SW7       29.32F
CROOKSTON      CLOUDY    36  27  69 S18       29.36F
FOSSTON        CLOUDY    36  25  64 S14       29.37F
DETROIT LAKES  CLOUDY    36  28  75 S9        29.42F
MOORHEAD       CLOUDY    34  25  69 S10       29.43F WCI  26
PARK RAPIDS    CLOUDY    31  26  82 S9        29.43F WCI  23
MAHNOMEN       FAIR      37  26  64 S17       29.39F
$$
MNZ006-009>011-018-025>026-201700-
   North Central Minnesota

CITY           SKY/WX    TMP DP  RH WIND       PRES   REMARKS
BAUDETTE       CLOUDY    32  25  75 S10       29.34F WCI  24
FLAG ISLAND    CLOUDY    28  25  86 S16       29.30F WCI  17
INTL FALLS     CLOUDY    28  22  78 SE6       29.42F WCI  22
WASKISH        CLOUDY    36  27  69 S9        29.38F
BIG FORK       CLOUDY    32  25  74 S7        29.44F WCI  26
LONGVILLE      CLOUDY    32  28  86 CALM      29.45F
GRAND RAPIDS   CLOUDY    28  24  85 SE5       29.49F WCI  23
CRANE LAKE     CLOUDY    27  25  93 CALM      29.49F
ORR            CLOUDY    28  21  74 SE9       29.44F WCI  20
COOK           CLOUDY    30  25  80 S6        29.48F WCI  24
WALKER         FAIR      32  26  76 SE3       29.42F
$$
MNZ012-019>021-037-201700-
   Northeast Minnesota

CITY           SKY/WX    TMP DP  RH WIND       PRES   REMARKS
DULUTH         CLOUDY    27  25  92 SE7       29.53F WCI  19
ELY            CLOUDY    30  25  80 S8        29.51F WCI  23
HIBBING        CLOUDY    26  23  88 SE7       29.50F WCI  18
EVELETH        CLOUDY    25  21  86 CALM      29.52F
DULUTH HARBOR  MOSUNNY   28  25  86 CALM      29.58F
TWO HARBORS    MOSUNNY   34  28  80 E3        29.55F
SILVER BAY     CLOUDY    27  25  93 CALM      29.55F
GRAND MARAIS     N/A     33  28  81 NE5       29.62F WCI  29
G MARAIS ARPRT CLOUDY    27  23  86 SE3       29.56F FOG
$$
MNZ029>031-032-039>041-046>048-054>057-064-201700-
   West Central Minnesota

CITY           SKY/WX    TMP DP  RH WIND       PRES   REMARKS
FERGUS FALLS   CLOUDY    36  27  69 S9        29.47F
WHEATON        CLOUDY    36  27  69 S9        29.47F
MORRIS         CLOUDY    34  27  75 S9        29.46F WCI  26
ALEXANDRIA     CLOUDY    36  27  69 MISG      29.48F
ELBOW LAKE     FAIR      34  27  75 S13       29.46F WCI  25
WADENA         CLOUDY    37  27  65 S9        29.44F
GLENWOOD       CLOUDY    34  28  80 S10       29.49F WCI  26
APPLETON       CLOUDY    37  27  65 S5        29.48F
BENSON         CLOUDY    34  27  75 S7        29.50F WCI  28
ORTONVILLE     MOSUNNY   36  27  69 MISG      29.47S
MADISON        CLOUDY    39  30  70 SW9       29.48F
WILLMAR        FAIR      34  30  86 SE7       29.51F WCI  28
$$
MNZ033>034-036-042>043-049>051-058-059-201700-
   Central Minnesota

CITY           SKY/WX    TMP DP  RH WIND       PRES   REMARKS
ST CLOUD       CLOUDY    32  29  88 SE8       29.53F WCI  25
SAUK CENTRE    FAIR      31  27  84 S8        29.50F WCI  24
PAYNESVILLE    CLOUDY    32  29  86 S7        29.51F WCI  26
AITKIN         CLOUDY    32  27  80 S13       29.46F WCI  22
PINE RIVER     CLOUDY    30  27  86 S5        29.50F WCI  25
BRAINERD       CLOUDY    38  28  67 S14       29.48F
STAPLES        CLOUDY    34  27  75 S14       29.46F WCI  24
LONG PRAIRIE   FAIR      32  28  86 SE7       29.49F WCI  26
LITTLE FALLS   CLOUDY    32  25  74 SE5       29.52F WCI  27
LITCHFIELD     CLOUDY    36  30  80 S3        29.53F
BUFFALO        CLOUDY    36  28  72 S7        29.55F
MAPLE LAKE     CLOUDY    35  30  84 S7        29.55F WCI  29
HUTCHINSON     CLOUDY    35  30  82 S8        29.54F WCI  29
$$
MNZ037-044-045-052-053-201700-
   East Central Minnesota

CITY           SKY/WX    TMP DP  RH WIND       PRES   REMARKS
PRINCETON      CLOUDY    36  30  80 S6        29.55F
MORA           CLOUDY    32  28  86 S3        29.56F
CAMBRIDGE      CLOUDY    37  28  70 S8        29.55F
RUSH CITY      CLOUDY    34  29  82 S5        29.56F WCI  30
MOOSE LAKE     CLOUDY    28  27  93 CALM      29.52F
HINCKLEY       FAIR      32  30  93 S3        29.56F
CLOQUET        CLOUDY    27  21  80 SE5       29.53F WCI  21
MCGREGOR       CLOUDY    32  28  86 S10       29.49F WCI  24
$$
MNZ071>073-080-081-089-090-097-098-201700-
   Southwest Minnesota

CITY           SKY/WX    TMP DP  RH WIND       PRES   REMARKS
MONTEVIDEO     CLOUDY    36  27  69 SW7       29.49F
GRANITE FALLS  CLOUDY    38  29  70 S8        29.53F
CANBY          CLOUDY    41  27  55 SW8       29.50F
MARSHALL       MOSUNNY   41  25  53 SW16      29.51F
REDWOOD FALLS  CLOUDY    37  27  67 S9        29.53F
OLIVIA         CLOUDY    36  30  80 S9        29.52F
PIPESTONE      CLOUDY    36  27  69 SW13      29.53F
WINDOM         CLOUDY    39  23  52 SW17G24   29.56S
WORTHINGTON    CLOUDY    38  26  62 SW16      29.55F
JACKSON        CLOUDY    39  27  60 SW15      29.56F
SLAYTON        CLOUDY    36  27  68 SW16      29.56F
$$
MNZ065>067-074>077-082>085-091>093-201700-
   South Central Minnesota

CITY           SKY/WX    TMP DP  RH WIND       PRES   REMARKS
MANKATO        CLOUDY    37  28  70 S14       29.58F
NEW ULM        CLOUDY    36  27  69 CALM      29.54F
ST JAMES       CLOUDY    37  28  70 S16       29.56F
FAIRMONT       CLOUDY    38  28  67 SW15      29.59F
GLENCOE        CLOUDY    36  30  79 S9        29.55F
FARIBAULT      CLOUDY    37  28  70 S12       29.60F
OWATONNA       CLOUDY    39  28  65 S14G21    29.60F
WASECA         CLOUDY    39  30  70 S15       29.61F
ALBERT LEA     CLOUDY    41  27  56 S9        29.61F
$$
MNZ078>079-086>088-094>096-201700-
   Southeast Minnesota

CITY           SKY/WX    TMP DP  RH WIND       PRES   REMARKS
ROCHESTER      CLOUDY    39  30  70 S15       29.63F
RED WING       CLOUDY    39  27  60 SE7       29.62F
STANTON        CLOUDY    39  29  67 S13       29.58F
DODGE CENTER   CLOUDY    39  28  65 S14       29.60F
WINONA         CLOUDY    41  28  60 S5        29.68F
AUSTIN         CLOUDY    37  28  70 S14       29.63F
PRESTON        CLOUDY    39  28  64 S13       29.66F
$$
ABBREVIATIONS USED IN REMARKS
   TC - TEMPERATURES IN CELSIUS
  WCI - WIND CHILL INDEX
   HX - HEAT INDEX
  VSB - VISIBILITY
$$




USA.gov is the U.S. government's official web portal to all federal, state and local government web resources and services.